Back to year calendar - Dolgoch Challenge Race - Tynllwyhen Challenge - 10k Quarry Challenge

Race the Train, Tywyn, Wales

18th August 2007

Results courtesy of Adrian Lloyd and George Watson
(This is a sortable table - click column heading)
Filter (choose one only!)
Name:
Cat: Club:
PosNumNameCatClubChip TimeGun TimeBeat The Train?
1901Gareth RavenMSale Harriers01:23:0101:23:02Y
2145Adam GriceMHeanor01:30:2301:30:24Y
3336Philip CritchlowMBeaumont Running Club01:31:0201:31:04Y
4784Alex RoweM50Wesham Road Runners01:31:2001:31:22Y
5808Ben MounseyMAn Outside Chance01:32:3501:32:36Y
6663Dav ConnorM40Ripley RC01:32:5301:32:56Y
7843Steven ReesMPort Talbot Harriers01:32:5601:32:58Y
8506Gregory Alan WilsonM50Telford01:34:4401:34:45Y
9936John AllenM40Bridgnorth AC01:35:2901:35:31Y
10162Matt GilesMStourbridge01:35:3701:35:40Y
11221Ian DayMEly Runners01:36:3701:36:40Y
12355Tim PriceMSolihull & Small Heath01:36:5701:37:00Y
13832Simon LinkM40Stourbridge01:36:5901:37:03Y
14920Andrew CottierMDewsbury Road Runners01:37:0601:37:12Y
15745Paul MassinghamMStamford Striders01:37:3601:37:40Y
1613Patrick NoonanM40Kenilworth Runners01:39:0201:39:05Y
17501Lee TomlinsonMHermitage Harriers01:39:0301:39:05Y
18866Chris PayneMReading Road Runners01:39:1701:39:21Y
19735Michael TownsendMBeaumont Running Club01:39:2401:39:30Y
20605Earlam GrahamM45West Cheshire01:39:3801:39:40Y
21402Paul GregoryMHermitage Harriers01:39:4401:39:48Y
22886Pete MartinM40Staffs Moorlands01:39:4501:39:46Y
23618Hugh MarsdenM45Exmouth Harriers01:39:4901:39:55Y
24465Lester MccabeM40Styal01:39:5701:40:01Y
25636Steve LevertonM45North Derbyshire01:40:0301:40:08Y
26451Andrew MeskimmonM40Dewsbury Road Runners01:40:0601:40:11Y
27387Dan SmithMFarnham Runners01:40:0801:40:12Y
28854Andy MayMAbbey Runners01:40:2801:40:37Y
29477Stuart HopkinsMKenilworth Runners01:40:2901:40:31Y
3044Mike EllisMSpa Striders01:40:3901:40:43Y
31582Paul LewisMLong Eaton01:41:2301:41:23Y
32678Stuart CrispinM 01:41:2801:41:30Y
3393John BrooksbankM50Abbey Runners01:41:3501:41:44Y
34729John CrispMEly Runners01:41:3901:41:42Y
35600Ian FosterMSneyd Striders01:41:4001:41:42Y
36370Michael FryerM45Halifax Harriers01:41:5501:41:56Y
37282Kevin NewmanM50Doncaster AC01:41:5801:42:00Y
38149Rene VergoMSolihull & Small Heath01:42:0701:42:09Y
39472Ian AndrewsM40South West R R01:42:1101:42:15Y
40730Richard RalphsM 01:42:1601:42:24Y
41185Mark BraleyMSerpentine01:42:4901:42:54Y
42591John PullenMWye Valley Runners01:42:5701:43:09Y
43251Robert HallMShropshire Shufflers01:43:0401:43:08Y
44112Matthew NuttMFormula One C C01:43:1701:43:21Y
45147Stephen WilliamsM45 01:43:2601:43:29Y
46829Ian KeyteM45Bromsgrove & Redditch AC01:43:3101:43:39Y
47898Andrew DaviesMStourbridge01:43:4301:43:46Y
48136Daniel EvansMSneyd Striders01:43:4501:43:48Y
49834Phil ReddenM55Riverside Runners01:44:1101:44:18Y
50227Ian TiveyMHerne Hill Harriers01:44:1801:44:28Y
5167Richard SchofieldM45Chippenham Harriers01:44:2501:44:31Y
52121John ArmstrongMLondon Heathside01:44:3401:44:38Y
53341Alex TollM40Barrow Runners01:44:3501:44:41Y
5495Duncan JenkinsM40 01:44:3701:44:47Y
55407Paul ScholteMPeel R R01:44:3701:44:41Y
56790Martin DorrillM40Kenilworth Runners01:44:3901:44:42Y
5736Stephen LakerMEllesmere Port RC01:44:4101:44:44Y
58482Richard HunterMShropshire Shufflers01:44:4401:44:50Y
59551Howard BushMTamworth AC01:44:4901:45:01Y
60484Lesley WhileyF45Reading Road Runners01:44:5801:45:03Y
61929James McQueenMErysi Harriers01:45:2101:45:22Y
62253Ian HaydenMAurora Harriers01:45:3001:45:35Y
6388Denis DuretM40Ellesmere Port RC01:45:5201:45:58Y
64803William AlvesM50Totley01:46:0601:46:12Y
65722Darren RidoutMHeanor01:46:0901:46:16Y
66885Daniel ParryMRAF01:46:1101:46:22Y
67705Christopher RainsfordMHeanor01:46:1201:46:16Y
68144Alan HallMSerpentine01:46:3101:46:41Y
69835Ray GreenM40Saddleworth01:46:3901:46:47Y
70541Charles WalshMPort Talbot Harriers01:46:4601:46:51Y
71418Stephen RobertsM50Oswestry Olympians01:46:5201:46:59Y
72215Howard ChambersM40Saddleworth01:46:5301:47:11Y
73855Dave HaggartMWarwick University AC01:46:5701:47:05Y
74897Michael WilliamsM50Kenilworth Runners01:47:0201:47:06Y
75376Russell HallMSpa Striders01:47:0601:47:08Y
76186Howard JeffreyM50Otley AC01:47:1601:47:23Y
77590John AitkenMPlymouth Harriers01:47:1601:47:32Y
78926Mark AndersonM45Pewsey01:47:2801:47:31Y
79296Paul TranterM40 01:47:3101:47:36Y
80154Neil KellyMPenny Lane Striders01:47:3901:47:52Y
81838Keith PritchardMRiverside Runners01:47:4501:47:52Y
82629Jennifer RansomeF40 01:47:5401:47:58Y
83621Alec WarringtonM 01:47:5601:48:00Y
84210John TerryMHermitage Harriers01:47:5701:48:02Y
85932Robert FrostMNorfolk Orienteering Club01:47:5901:48:12N
86928Michael CunninghamM40Southport Waterloo AC01:48:0801:48:12N
87570Neil BevanMOswestry Olympians01:48:0801:48:22N
88500Charles AshbyM40Farnham Runners01:48:1301:48:15N
89123Michael WarrickM50Rhayader01:48:1401:48:19N
90150Paul MannersM40Chiltern Harriers AC01:48:1901:48:26N
91908Les HaynesM60Bingley Harriers01:48:2001:48:27N
92410Colin R HighfieldM40Sneyd Striders01:48:2201:48:28N
93310Keith YendallMBarrow Runners01:48:2701:48:33N
94413Alex HalpinMSouth London Harriers01:48:3101:48:38N
95824Carl BakerM40Peel R R01:48:4201:48:46N
9649Simon FoxM40Wirral AC01:48:4401:48:48N
97124Philip KendrickM45Brecon AC01:48:4801:48:51N
98109Michelle BuckleFNewcastle (Staffs) A C01:48:5801:49:04N
99425Mark RogersMPlymstock Road Runners01:49:1101:49:19N
100845Paul DurnallMStourbridge01:49:2001:49:23N
101700James EdgarMSerpentine01:49:2301:49:33N
102196Martin PriceMSpa Striders01:49:4101:49:45N
10328Chris MayM 01:50:0001:50:06N
104584Michael KrautzbergerMSerpentine01:50:0201:50:08N
105223Sue DolanF45Harrogate Harriers01:50:0601:50:13N
106840Treena JohnsonF45Dewsbury Road Runners01:50:0801:50:13N
107938Gareth MurtaghMLong Eaton01:50:2401:50:24N
108690Lenny HughesM50Newton Harriers01:50:2601:50:29N
10918Rob ThompsonMKenilworth Runners01:50:3001:50:34N
110519Tim RandellM45Rugby & Northampton AC01:50:3201:50:35N
111664Peter RoomeM40Southport01:50:3301:50:41N
112710Derek HughesM45East Cheshire Harriers01:50:3601:50:58N
113114Lee PerkinsMHeanor01:50:4701:51:05N
114795Tony HeskethM55Horwich RMI Harriers01:50:5401:51:02N
11515Chris FulcherM40Port Talbot Harriers01:50:5501:51:01N
116204Matt HydeM 01:51:1001:51:14N
117577Glenn PalmerM40 01:51:1501:51:32N
118530Adrian ReadM50Sneyd Striders01:51:3101:51:37N
119437Steve KitneyMFarnham Runners01:51:3801:51:43N
120620Mike PalmerMBro Dysynni AC01:51:4501:51:54N
121337Debbie MarsdenFBeaumont Running Club01:51:4601:51:52N
122698Henry ThomasM40Telford01:52:0501:52:07N
123523Graham HobbsM45Desford Striders01:52:1001:52:32N
124557Richard BorneM40Eryri Harriers01:52:2201:52:41N
125141Stafford ReesMRhayader01:52:2201:52:40N
126295Andrew HoughtonM45 01:52:3101:52:36N
12779Robin RustonM50Cleethorpes Athletic01:52:4201:52:47N
128813Alan MarshallM50Eden Runner01:52:4201:52:58N
129345Michael PaceMAvon Valley Runners01:52:4801:52:59N
130911Ross HaleM40Bitton Road Runners01:52:5701:53:01N
131890Wayne OakesMKenilworth Runners01:53:0001:53:05N
132457Andrew GladwinM40Saddleworth01:53:1201:53:34N
133553Andy FarleyM45East Cheshire Harriers01:53:1501:53:17N
134335Stephen O'NeillM55 01:53:1501:53:22N
135509Tony JohnsonM40Roisley Road Runners01:53:1901:53:27N
136819James PriceM50Liverpool RC01:53:1901:53:31N
137797Stuart MannM60Herts Phoenix01:53:2201:53:27N
138750David LawrieM40Desford Striders01:53:3101:53:37N
139805Rhyd HarrisMAn Outside Chance01:53:4601:54:34N
140101Martin MorleyM55Dulwich Runners01:53:5601:54:01N
141510Stuart CunninghamM40North Derbyshire01:53:5901:54:04N
142941Phil RichardsFWeston AC01:54:0801:54:19N
143833Anthony Stranger-JonesM60Serpentine01:54:1201:54:21N
144916Mark BroksM40Claverly AC01:54:1501:54:38N
145950Tim GeorgeMShrewsbury Athletic01:54:1501:54:19N
146168Danny WizardM50Vale Of Aylesbury01:54:1901:54:25N
147412David RoseM45Stourbridge01:54:2901:54:36N
148205Jane BradshawF35Black Heath & Bromley01:54:3101:54:37N
149742Sean DriscollM45Totton01:54:3701:54:45N
150533Keith RitchieM40Riverside Runners01:54:3901:54:57N
15198Terry SteadmanM55Farnham Runners01:54:4301:55:00N
152104Phil BellamyM45Saltwell Harriers01:54:5401:55:10N
153807Jason BuchananMAn Outside Chance01:55:0201:55:49N
154857Mark CryerM35Swindon Striders01:55:0701:55:13N
155170Frank CaciM50Trentham01:55:1501:55:39N
156912Lynette PorterF40Bitton Road Runners01:55:2701:55:30N
157354David StubbingsM40 01:55:3101:55:56N
158127Martin WilkinsonM45Birchfield Harriers01:55:3401:55:40N
159930Paul CollinsM40Bromsgrove & Redditch AC01:55:3601:55:44N
160714Maria ConaghanFPenny Lane Striders01:56:0101:56:16N
161856Shaun BoothM 01:56:0301:56:10N
162725Graham ReynoldsM40South West R R01:56:0401:56:11N
163166Edward Harry GrubbMCheshire Tri01:56:0801:56:16N
164823Peter HortonM50Sneyd Striders01:56:1801:56:23N
165837Matthew WhitfieldM50Ellesmere Port RC01:56:2101:56:28N
16656Paul LittlerM 01:56:3001:56:38N
167522Cliff WyattM40Cheshire Hash House Harriers01:56:3401:56:45N
168528Stephen CookM40Serpentine01:56:5001:57:00N
169496Colin JenningsM 01:56:5101:57:02N
17071Martin PerrinM45Reading Road Runners01:56:5201:56:56N
17192Mark DaviesMWye Valley Runners01:56:5301:57:05N
172626Alan PerkinsM55Port Talbot Harriers01:57:0201:57:12N
173948Anthony PriceM40Dudley Kingswinford R C01:57:0801:57:16N
174470Sue BlackF45Birstall Running Club01:57:1301:57:22N
175301Tim JonesM45Shropshire Shufflers01:57:1901:57:27N
176423Paul JonesM 01:57:2001:57:30N
17751Mark MidgleyM40Wesham Road Runners01:57:3101:57:38N
178937Darren LovattMLongeaton Running01:57:3701:57:48N
179734Liam BrowneMEast Cheshire Harriers01:57:4701:57:52N
180384Aidan KeherM45Kenilworth Runners01:57:4901:57:54N
181234David PraszakM 01:58:0401:58:06N
182481Jeremy RandellM40 01:58:0501:58:15N
183445Ian JoslinM 01:58:1201:58:56N
184709Christopher WilliamsM45Collynbay AC01:58:1401:58:33N
185287Mike AnslowMStourbridge01:58:3301:58:41N
186505Trevor MarshallM55 01:58:4801:58:55N
187924Owen FlageMOldham & Royton01:58:5201:58:57N
188568Melanie YoungFNewcastle (Staffs) A C01:58:5701:59:04N
189427Simon BoltonM40Cheshire Hill Racers01:58:5901:59:19N
190430Huw JohnsonMSpringfield Striders01:59:0001:59:14N
191321Zac MellardM 01:59:1601:59:36N
192556Kenny HighfieldM40Sneyd Striders01:59:2101:59:39N
193579Barry GreenM40Stourbridge01:59:2702:00:02N
194696Andrew BriggsM40 01:59:3702:00:23N
195419Ian John WheelerM40 01:59:4001:59:47N
196424David JonesM 01:59:4401:59:53N
197469Ian BlackM45Birstall Running Club01:59:4501:59:55N
198452Ben HallifaxMHerne Hill Harriers01:59:4701:59:57N
199782Nicolas ChapmanM45South Derbys RR01:59:5001:59:58N
200922Val SwinglerF40Shropshire Shufflers01:59:5202:00:11N
201504Suzanne SharmanFNorth Derbyshire02:00:0002:00:05N
20238Jason LavineMHermitage Harriers02:00:0302:00:08N
20334Jamie SeekingsMPenarth & Dinas RC02:00:0902:00:29N
204601Alan BurtMChase Harriers02:00:1102:00:22N
205907Mark WhitfieldMBeaumont Running Club02:00:1502:00:31N
206724Peter GarsonM40Aberystwyth AC02:00:2102:00:45N
207202Paul BowerbankM45Totley02:00:2402:00:36N
208739Joanne HoggF35Saddleworth02:00:3302:00:52N
209841Paul CroftM45Dewsbury Road Runners02:00:3602:00:42N
210914Jeremy WildeM50Guildford Orienteers02:00:3702:01:01N
211220Martin HewlettM 02:00:4002:00:50N
212721Nick CampbellM40Chester Traithlon02:00:5102:00:59N
213815Sam NorthM55Heanor02:00:5702:01:24N
214226Joseph BattleM45 02:01:0802:01:19N
21585Sarah SherrattF35Wesham Road Runners02:01:1202:01:20N
216107Jimmy AtkinsM40Bromsgrove & Redditch AC02:01:1702:01:29N
217441Justin RabettM40Herne Hill Harriers02:01:2302:01:33N
218951Paul DonoghueMBuckley Runners02:01:3902:01:45N
219492Jeremy LockettM45Maidenhead AC02:01:3902:01:57N
220420David KindMHermitage Harriers02:01:4602:02:15N
221945Kevin MulliganM45St Helens Striders02:02:0002:02:15N
222283Graham MoorhouseM50Trentham02:02:0202:02:04N
223153Barry BrightM45Penny Lane Striders02:02:0302:02:17N
224498Walter MarshM55Bro Dysynni AC02:02:0502:02:11N
22537Mark HiggsM40Stourbridge02:02:0502:02:40N
226913Gregory PerkinsM50Telford Athletic02:02:0602:02:12N
227319Mark GarrettM45Northampton Road Runners02:02:0802:02:15N
228747James WalkerM 02:02:1602:02:43N
229351Darran FordMSutton Runners02:02:1602:02:32N
230116Michael JonesM45 02:02:3102:02:49N
231604Coleman BarryM50Beaumont Running Club02:02:4402:02:59N
232495Andrew BlackfordM55West End Runners02:02:4902:03:22N
233655Nigel HillierM 02:03:1002:03:35N
234578John ShortM45Shropshire Shufflers02:03:1102:03:32N
235339Nicola ThompsonF35Charnwood AC02:03:1802:03:23N
236638Jacki JarvisF45Oswestry Olympians02:03:2102:03:35N
237466Damian HoodM 02:03:2402:03:28N
238879Michael LetherenM50Lordshill Road Runners02:03:3302:03:51N
239340Juliet NaylerF35 02:03:4702:04:00N
240366Iain FakeM 02:03:5002:03:59N
241811Mark OliverM40 02:04:0202:04:17N
242860Gunner GaryM60Croft Ambrey R C02:04:0502:04:17N
243487Kevin WalfordM40Cornelly Striders02:04:0702:04:17N
244662Michael McgoldrickM45 02:04:0702:04:21N
24573Hugo IfflaM50Bro Dysynni AC02:04:0802:04:15N
246386Patrick WinstoneM45Town & Country Harriers02:04:2302:04:49N
247593Starcevic AndreyMWootton R R02:04:3102:04:34N
248122Jeanette FoxF40Wirral AC02:04:3602:04:40N
24948Richard DarleyMAlchester RC02:04:3802:04:46N
250547Graham RogersM50 02:04:4202:05:12N
251550Paul StokesM 02:04:5102:05:23N
252449Polly MaclehoseF 02:05:0302:05:11N
253325Dave GillM45 02:05:1002:05:32N
254892Richard GarbettM 02:05:1002:05:43N
255203Lon HoosonM 02:05:1102:05:39N
256934Christopher GarbettM40Oswestry Olympians02:05:1602:05:49N
25776Keith RensM50 02:05:1702:05:24N
258242Simon PerryMAction Heart02:05:1702:05:49N
25940Mark BrattonM45 02:05:2102:05:50N
26072Max WoodsM40 02:05:2102:06:01N
261218Peter SchutzeM40Red Lions Leipzig02:05:2102:06:07N
262400Malcolm HarrisM50Barrow Runners02:05:2202:05:45N
263381Ian DaviesM45Sphinx AC02:05:3902:06:04N
26466Mick ClarkeM50Spa Striders02:05:4202:05:53N
265415Matt BurnsMFarnham Runners02:05:5402:06:30N
266800Tarja KinnunenF35Penny Lane Striders02:06:0402:06:18N
267514Bob StreetM40Pewsey02:06:0802:06:16N
268608Bouston PaulMWye Valley Runners02:06:1102:06:49N
269248Keith RobbinsMChester Traithlon02:06:1102:06:50N
270438Kevin PostinsM45Sneyd Striders02:06:1402:06:32N
271517Adrian LloydM55Serpentine02:06:3102:06:41N
27268Ian SpencerM45Stafford Harriers02:06:3302:06:42N
273291Colin BostockM50Long Eaton02:06:3502:06:56N
274245Ben MaymandM 02:06:4002:07:01N
275264Collier AnthonyM50 02:06:4202:07:07N
276192Anthony O'BrienM45Saracens02:06:4302:06:58N
277300Nigel ThomasM45Meltham AC02:06:5302:07:21N
27816Ian HanksMSleaford Striders02:07:0002:07:41N
279307Vincent BarnardM40 02:07:0902:07:18N
280277Edmund BaileyM 02:07:1002:07:18N
281884Andrew BuckM45Hermitage Harriers02:07:2102:07:49N
28257David SheppardM45Stourbridge02:07:2702:07:34N
283135Martin Garth WilliamsM60Fryi02:07:3102:07:37N
284374Martin KeeganM45London Underground AC02:07:3402:07:45N
285182George WraithM45Westlands AC02:07:3802:08:18N
286456Jamie DaviesM 02:07:4002:08:23N
287612Pears BryanMSphinx AC02:07:4802:08:11N
288630Haydn JonesM40Abergele Harriers02:07:4902:07:50N
289165Charles BeckM 02:07:5702:08:12N
290865Rosemary JonesFReading Road Runners02:07:5902:08:19N
291305David BeasleyM65Herts Phoenix02:08:0402:08:15N
29214Michael WhalleyM45Wreake Runners02:08:0602:08:29N
293713Kerry WaineM55Kenilworth Runners02:08:0702:08:38N
294592Johannes Van De MeerMAV Arena Rhenen02:08:0802:08:11N
295479Vicki SmithF40Spa Striders02:08:1702:08:28N
296798Richard SimmsM40Stubbington Green02:08:2302:09:01N
297429David GriffithsMFormula One C C02:08:2402:09:03N
298467Michael QuaneMDudley Kingswinford R C02:08:3802:08:42N
299468Adam DonoghueMCranleigh Tortoise & Hare02:08:5102:09:06N
300940Ken BloorM45Trentham AC02:08:5302:09:19N
301459Dean RushbyMHarborough A C02:08:5502:09:16N
302244Christopher SpeedM40 02:08:5802:09:08N
303820Stephen PriceM45Liverpool RC02:08:5902:09:38N
30489Anthony HollingM50Port Talbot Harriers02:09:0102:09:11N
305128Stephen BeckettM40Alton Runners02:09:0302:09:25N
306508David KingM40Stubbington Green02:09:1102:09:49N
307785Simon JonesMSneyd Striders02:09:1102:09:30N
308348Tom RogersM45Farnham Tri02:09:1402:09:37N
309320Stuart MellardM40Kimberworth Striders02:09:1702:09:37N
310555Shane KnottMPenny Lane Striders02:09:2002:09:43N
311414Colin YoungMSouth London Harriers02:09:5102:09:59N
312594Dentith AnnetteF 02:09:5602:10:42N
313285Steve RoodeM40Malvern Joggers02:10:0002:10:31N
314607Collins RichardMOswestry Olympians02:10:0802:10:22N
315727Alan SimmonsM40Sneyd Striders02:10:1202:10:30N
316241Simon BundayM45Dawlish Coasters02:10:1802:10:49N
317694John KavanaghM40London Irish02:10:2702:10:42N
318359Michael MccorkellMTattenhall Runners02:10:2902:10:56N
319346Kay HattonF40North Wales Road Runners Club02:10:3302:10:47N
320733Simon ClydeMFarnham Runners02:10:4102:11:22N
321676Keith LesterM 02:10:4402:11:00N
322139Kate HallFSpa Striders02:10:5102:11:02N
323788Rob HumeM45Almost Athletes02:10:5402:11:23N
324596Andrew RopsonMPeel R R02:10:5502:11:22N
325728Alan SimmonsM40Sneyd Striders02:10:5602:11:15N
326923Brigid BrowneF35Chippenham Harriers02:11:1202:11:24N
327561David SinnottM55Saddleworth02:11:1802:11:37N
328559Ellen AshtonF35Oswestry Olympians02:11:2202:11:37N
329397Toni VaughanF 02:11:2402:11:40N
330201Janet MiltonF45Totley02:11:3502:11:56N
331350Leanne EmbertonFNWRRC02:11:3702:11:50N
332825Tony WenlockM50Aberystwyth AC02:11:3702:12:18N
333217Tima KogelM40Red Lions Leipzig02:11:4502:11:59N
334436Darrell MckendryMSneyd Striders02:11:5202:12:12N
335422John FryerM50Trentham02:11:5502:12:20N
336667Narinder BainsM40Saracens02:11:5702:12:13N
337463Lee MayM 02:12:0202:12:46N
338859Tom DaviesM55Croft Ambrey R C02:12:0502:12:18N
339401Brian JonesMCobra02:12:0902:12:26N
340796Ann HillierF45Formula One C C02:12:1302:12:38N
341313Geoff SmithM45Wootton R R02:12:1602:12:39N
342531Keith WilldigM55Hinckley Runners02:12:1802:12:29N
343490John NorrisM60Peel R R02:12:2202:12:48N
344106Gabriela HitchcockFFarnham Runners02:12:2602:13:02N
34577Peter De BoerM40Town & Country Harriers02:12:2802:12:52N
346105Nick HitchcockMFarnham Runners02:12:3502:13:11N
347453Robert HardwickMPenny Lane Striders02:12:3502:12:58N
348732Alexandra HetheringtonF35Sleaford Striders02:12:3602:12:45N
349882Leonard QuartlyM65Bromsgrove & Redditch RC02:12:4202:13:15N
350896Sean DolanM45 02:12:4702:13:31N
351286Ian LynchM45Dawlish Coasters02:12:5202:13:23N
352873Toni McqueenF50Reading Road Runners02:13:0002:13:20N
353368Jarrick HarrisMAlton Runners02:13:1002:13:17N
354809John AllenMAn Outside Chance02:13:1202:13:12N
355233Robert ClaytonM 02:13:1202:13:20N
356191Robert WebsterM45Tattenhall Runners02:13:1702:13:44N
357632Nicole Grice-JacksonF45Ruiton Running Club02:13:1902:13:41N
358118Seb FalkMSpa Striders02:13:2002:13:56N
359850Richard BicknellM45Spa Striders02:13:2002:13:57N
360163Stuart ChampionM40Kent Police AA02:13:3202:14:17N
361448Ian MayM60Harmeny02:13:3902:14:07N
36230Stephen GriffithsM45Rutland02:13:4402:14:09N
36321Michael EdmundsM40 02:13:4402:14:08N
364576Alison PickardF 02:13:5402:14:11N
365919John BryantM45Rugby & Northampton AC02:13:5502:14:06N
366224Sam FreemanM50Action Heart02:14:0502:14:37N
367558Wendy TrimbelFEryri Harriers02:14:2602:14:38N
368164George BeckM 02:14:2702:14:27N
369652Matt CurtisM 02:14:2902:15:01N
370637Neil BallardM45Oswestry Olympians02:14:2902:14:42N
371428Sara DuncanFFormula One C C02:14:3002:15:09N
372589Fiona WrightFCity of Hull AC02:14:3002:14:49N
373723Mark EvansM 02:14:3002:15:01N
374344Macgregor SueF45Avon Valley Runners02:14:3802:14:49N
375544Stefan BrittainM 02:14:4302:14:51N
376616Sean BirchMIslwyn02:14:4602:15:01N
37750Christian BrendeckeM60Red Lions Leipzig02:15:0202:15:45N
378842Dominic MurtaghM 02:15:0902:16:02N
379134Mike BravinM60North Derbyshire02:15:1002:15:27N
380389Andrew GibbonsM40Westbury Harriers02:15:2302:15:59N
381707Jonathan BottMBeaumont Running Club02:15:2302:15:39N
382406Ian YoungM 02:15:3302:15:48N
383771Zena TalbotF40Sneyd Striders02:15:3502:15:54N
38491Anthony MolloyM50Birchfield Harriers02:15:4202:15:51N
385373David CawteM40Rutland02:15:5302:16:17N
386377Dafydd LlywelynM 02:16:0302:16:33N
387431Phillip JonesM65Prestatyn R C02:16:0702:16:19N
38822Jon HanreckM 02:16:1002:16:37N
389532Sue JonesF45Eryri Harriers02:16:1102:16:35N
390602Becky NewellFRutland02:16:1102:16:40N
391480Gareth EllisM45 02:16:1302:16:22N
392672Daniel PawsonM 02:16:1502:17:07N
393493Carolyn LockettF45Maidenhead AC02:16:1502:16:33N
394831Bill CorkM40Oswestry Olympians02:16:2402:16:38N
395388Martin KayeMDewsbury Road Runners02:16:3502:17:11N
396877Wayne MorganM40Red Cross02:16:4002:16:45N
397613Stephen JamesMIslwyn02:16:4002:17:32N
398473Simone WilsonF35Nuneaton Harriers02:16:4202:16:55N
399870Allan GreyM55Rutland02:16:4202:17:05N
400206Neil BellM40City of Hull AC02:16:4302:17:00N
401390Chris CarterM 02:16:5102:17:24N
402826Frank ThomasM45Wolds Vets02:16:5502:17:21N
403537David PyeM55Amazing Feet R C02:16:5602:17:28N
404262John CulinanelMSerpentine02:17:0702:17:26N
405540Ray MartlandM40 02:17:1802:18:09N
40617Steve WardM 02:17:2802:17:55N
407918Julie AndrewsF40Rugby & Northampton AC02:17:3002:17:43N
408899Robert Mottram JonesM45Vegetarian Cycling & AC02:17:3602:17:50N
409821Terence LewisM45Islwyn02:17:3702:18:27N
410324Ron MccairnsM45 02:17:3802:18:04N
411904David AllenM 02:17:4102:18:28N
412716Tony ManMPenny Lane Striders02:17:4202:18:04N
413494Martin ChamberlainM55West End Runners02:17:4302:18:16N
41474Chris BirdM40Carneddau Tri02:17:4802:18:09N
41559Billy MeakinM45Newcastle (Staffs) A C02:17:4902:18:22N
41625Catriona PurdyFAbbey Runners02:17:5502:18:33N
417443Edward HillM55Milton Keynes A C02:17:5602:18:15N
418720John JamesonM40 02:17:5902:18:30N
419906Natalie TingF35Styal02:18:1302:18:26N
420148Debra SuffolkF40Nuneaton Harriers02:18:2102:18:34N
42120Edmund PrestonM55Sleaford Striders02:18:2402:19:05N
42258Nickolas NealeMPeel R R02:18:2402:18:51N
42355Gerry LewisM55 02:18:2402:18:53N
424225Simon HamlettM40 02:18:2502:18:51N
425580Steve JamesM50Bromsgrove & Redditch AC02:18:2702:18:59N
426237Peter LymerMDroitwich AC02:18:2902:18:50N
427405Dave ToselandM55 02:18:2902:18:43N
428933Neil PottsM 02:18:3802:19:10N
429562Patrick OwenM45Black Pear Joggers02:18:4402:19:20N
430687Simon ButterworthM 02:19:1302:20:05N
431516Ian BlakebroughM55Cheshire Hash House Harriers02:19:3202:19:43N
432900Alan BuckberryM55Sleaford Striders02:19:3502:20:16N
433794Kevin BarnesM40Hereford Couriers02:19:3902:19:51N
4342361Larry GreenwoodM55 02:20:0602:20:34N
435717Colin WatkinsM55Almost Athletes02:20:1902:20:55N
436673Barry SimsM45 02:20:1902:20:34N
437619David WhippM55Bromsgrove & Redditch AC02:20:3002:21:03N
43899Dawn ClarkFSpa Striders02:20:4002:20:52N
439197Arthur ZammitMWolverhampton and Bilston02:20:4202:20:56N
440475Nick WilsonM45Nuneaton Harriers02:20:4302:20:45N
44160Andrew PughM40 02:20:4602:21:35N
442946Gareth WilliamsM45 02:20:5802:21:46N
443947Celia SpeakeF40Buith & District02:21:0002:21:13N
444268David BradleyM50Blyth Running Club02:21:0402:21:29N
445610Jackson KevinM40Stafford Harriers02:21:2202:21:37N
446526Edwina ColcloughFAlchester RC02:21:3302:21:47N
447115Steve ChilderleyMRiverside Runners02:21:3402:22:11N
448304Tracy OwenF40Arena 80 AC02:21:3602:21:54N
449668Michael GeorgeM40Saracens02:21:5202:21:52N
450177Simon BarrettM 02:21:5602:22:21N
451536Jackie KeasleyF45Helsby RC02:21:5702:22:31N
452599Rachel TweedieFNewcastle (Staffs) A C02:22:1202:22:46N
453565Robert ListerM50Pewsey02:22:3202:22:41N
454681Peter RuddM50 02:23:0302:23:41N
455294Robert WraithM45 02:23:0502:23:45N
456363Mick ClarkeM65Northampton Road Runners02:23:0902:23:34N
457627John StarbuckM55Birstall Running Club02:23:1202:23:41N
458633Gary ThompsonM40Ye Valley RC02:23:1302:23:53N
459563Ken EdwardsM45Kenilworth Runners02:23:1402:23:43N
46065Richard BrookesMSpa Striders02:23:1602:23:27N
461603Keith SouthallM 02:23:2702:24:00N
462669Ian WardM45Saracens02:23:3602:23:57N
463944Adam TaylorMUbswpc02:23:3602:23:40N
464546John MoorhouseM50Cheshire Hash House Harriers02:23:3902:23:49N
465187Julie CaseleyF45Malvern Joggers02:23:4102:24:02N
466880Debbie EvansF45 02:23:4402:24:02N
467883Ian LumsdenM40 02:23:4702:24:25N
468409Lisa KaneFAlmost Athletes02:23:4802:24:03N
469146Sarah MaynardFHermitage Harriers02:23:5602:24:26N
470263Belinda WellsF45Stockport Harriers02:24:2302:24:45N
471917Warren HollandMClaverly AC02:24:2402:24:49N
472212Colin PheasantM50Cannock Chase Harriers02:24:3402:24:38N
473943Charles LarssonM40Newcastle (Staffs) A C02:24:4002:25:15N
474349Ann RollingsF55Rugby & Northampton AC02:24:4902:25:22N
475238Graham PierceM 02:24:5402:25:48N
476689Chris NottonMSerpentine02:24:5802:25:08N
477347Mark WheeldonM40 02:25:1002:25:48N
478942James BarnesM45VK Net Runner02:25:1102:25:27N
479151Phil CharlesM40 02:25:1802:25:42N
480382Anke WillmsF 02:25:2602:26:11N
481535Joan BartimoreF40 02:25:4102:26:16N
482502Kevin HewittM45Riverside Runners02:25:4302:26:19N
483515Elspeth BarleyF45Pewsey02:25:5802:26:07N
484302Scott BalcombM40 02:25:5902:26:19N
485656Sue ZurawliwF45Formula One C C02:26:0602:26:30N
486200Christine HarfordF45 02:26:0902:26:54N
487657Patricia PoultonF40 02:26:5002:27:38N
488503Tony DuffinM50Almost Athletes02:26:5702:27:22N
489614Patrick SullivanM40Islwyn02:27:0102:27:21N
490393Phil ProtheroeMBrackla Harriers02:27:0402:27:18N
491380John WalkerM40North Wales Road Runners Club02:27:0702:27:26N
492306Malcolm BallM70North Norfolk Beach Runners02:27:1002:27:24N
49327Nick SeagraveM 02:27:2102:28:12N
494383Trevor DavisM 02:27:2602:28:08N
495362Myles DaviesM40Coventry Sphink A C02:27:3002:27:56N
496661Christopher BarkerM55Malvern Joggers02:27:3302:28:04N
497292Sarah DaviesF 02:27:3702:27:56N
498408Alan OwenM 02:27:4002:28:33N
499836Kevin LarkinMRoyal Sutton Coldfield02:27:4102:28:32N
500902Gareth LawM 02:27:4402:28:33N
501117Carolyn KellyFCobra02:27:5202:28:33N
50212Emily BeachamF35Kenilworth Runners02:28:0902:28:40N
503564Tim FletcherM40Peel R R02:28:1702:28:44N
504521Mark FarrarMLes Croupiers02:28:2402:28:41N
505198Richard DeaconM45 02:28:3002:29:15N
506718Hilary MccarthyF40Cardigan Running Club02:28:5902:29:38N
507126Carys EvansF45Bro Dysynni AC02:29:1102:29:28N
508715Patrick ByrneM40 02:29:3302:30:25N
509367Rachael FakeF 02:29:4202:30:30N
510789Steven BaileyM40Desford Striders02:29:4502:30:07N
511474Krista MayF 02:29:5002:30:33N
512617Alan EcclestonM50 02:30:0802:30:51N
513910Marie BarleyF40Rugely AC02:30:3002:31:13N
514478Jeremy LoweM55 02:30:3802:31:05N
515120Nick JonesM40 02:31:0002:31:32N
516142Blair GardinerM 02:31:0702:32:00N
517804Carol ParsonsF40Totley02:31:1602:31:25N
518327Richard HoweM 02:31:3702:32:11N
519332Jane BisikerF40Stafford Harriers02:31:4002:32:26N
520131Harriet RileyFNewcastle (Staffs) A C02:31:4102:32:16N
521878Martin LawrenceM55Red Cross02:31:4502:32:21N
522881John TunneyM55Totton02:32:0802:32:21N
523352James Christian-IlettM40 02:32:0902:32:33N
524954Joseph ChambersM40Liverpool RC02:32:1802:32:57N
525208David LockeM 02:32:1902:32:56N
526862Hilary LaneF45Abbey Runners02:32:5602:33:34N
527598Bethan RobertsFBlack Pear Joggers02:32:5902:33:35N
528793Graham BeddisM50Almost Athletes02:33:0102:33:27N
529703John WilliamsonM45Formula One C C02:33:1602:33:43N
530624Colin SinnottM55North Derbyshire02:33:2502:33:44N
531330Lorraine TollF40Barrow Runners02:33:3202:33:58N
532699Lawrence AthertonM40Dawlish Coasters02:33:3502:34:06N
533625Glyn HicksM55Islwyn02:33:4502:34:36N
534615Birch ColeenFIslwyn02:33:4502:34:35N
535801Maggie NicholsF50Trail Running Association02:34:0402:34:19N
536100Carolyn HoughtonF35Penny Lane Striders02:34:1002:34:32N
53763Carl HartleyMAlmost Athletes02:34:2702:35:01N
538935Anthony MowleyM55Wrexham Tri02:34:3902:35:26N
539572Yvonne PriorF45 02:34:3902:35:11N
540257Richard ShieldM 02:34:4102:35:16N
541323Denzil MartinMWrekin Road Runners02:34:4502:34:55N
542219Tim PoveyM70Reading Road Runners02:34:5502:35:31N
543444Kevin SmithM50Rutland02:35:1502:35:36N
544743Richard MaddockMSomer AC02:35:1802:35:40N
545549Terence HaggettM 02:35:3302:36:05N
546280Gareth MeadM45 02:35:3402:35:58N
547953Hilary GreenhalghF40Liverpool RC02:36:0402:36:44N
548491Nicky IngramF45Cheshire Hash House Harriers02:36:1502:36:26N
549520Sandra Powell-BevanF45Rugby & Northampton AC02:36:1702:36:37N
550298Gary HerridgeMDawlish Coasters02:36:2902:37:01N
55124Ruth SewardFWimbledon Windmilers02:36:3702:37:12N
552609Hassall RobertM 02:36:4202:37:25N
553455Sian DaviesF 02:37:0202:37:45N
554548Peter HerbertM 02:37:1102:37:31N
555312Nicola WilliamsF55 02:37:3302:38:10N
556512Sally RogersF55 02:37:5102:38:10N
557417Karen MuirF35Rutland02:38:1002:38:39N
55845Stuart CartledgeM55 02:38:1202:38:37N
559328Beverley RobertsF35Helsby RC02:38:1402:38:47N
560329Richard MitchellM55Helsby RC02:38:1602:38:47N
561299Ruth ThomasF40Meltham AC02:38:2702:38:56N
562666Karen TimothyF40Saracens02:38:2702:38:48N
563671Jane EdwardsF45Saracens02:38:2802:38:48N
564688Jemma ChapmanF 02:38:3402:38:52N
565891Peter CowlingM55Malvern Joggers02:38:4102:39:11N
566261Brian HerdmanM60Royston Runners02:38:4602:39:29N
567769Darren AdamsM40 02:38:5702:39:39N
568460Gary MasonM40Bournville Harriers02:39:1302:39:21N
569674Ben JohnsonM40Southport02:39:2602:39:42N
57070Stephen SamuelsM50 02:39:2902:40:03N
571611Hodges MikeM50Trots02:39:3802:40:18N
57287Prue ShelleyF 02:39:4202:40:22N
573236Clare HortonFBro Dysynni AC02:39:4902:40:07N
574949Michael HodgesM50 02:39:5402:40:35N
575507Bev TarryF60WRN02:39:5802:40:19N
576581Roger BeachamMBromsgrove & Redditch AC02:40:0102:40:34N
577435Rachel ParkerFAldridge RC02:40:0502:40:26N
578874Francis BreenM55Desford Striders02:40:1202:40:47N
579875Mary HardwickF45Rutland02:40:1202:40:41N
580378Tammy BreretonF 02:40:1602:40:46N
581181Bob AirdM70Barrow Runners02:40:4002:41:22N
582659Paul ShelleyM 02:40:5002:41:12N
583230Barrie HillyerM 02:41:0002:41:49N
584255John AlbuttM50 02:41:2402:41:53N
585684Judith WebbF40Valley Hill Runners02:41:3602:42:21N
586130Belinda RileyF45Newcastle (Staffs) A C02:41:4902:42:23N
587372David WatkinsM 02:42:0602:42:48N
588849Steve WilliamsM50 02:42:1102:42:39N
589909Dennis HaynesM65North Berkshire02:42:2302:42:54N
590222Eddie NaisbyM75Restatyn R C02:42:2402:42:58N
591290Alan BoltonM 02:42:3702:43:17N
592454Jane HallowsF35Penny Lane Striders02:43:2502:43:47N
593317Philip BlissM40 02:43:4202:44:31N
594680Robin MillmanM45Dawlish Coasters02:44:0402:44:47N
595421Trevor HopeMHermitage Harriers02:44:2202:44:52N
596903Gareth EvansM 02:44:4302:45:31N
59780Colin BirminghamM50 02:44:4802:45:37N
598152Clive HoldenM45Sleaford Striders02:44:4802:45:29N
599289Patrick BurrowsM70Leamington CAC02:45:3102:45:50N
600744David MannM40Presteigne Pacers02:45:3302:46:14N
601446Ruth JoslinF 02:45:5102:46:34N
602281Rebecca SturgessF 02:46:0102:46:54N
603254Michael HaydenM60Aurora Harriers02:46:1602:46:46N
604931Mike LeonardM40 02:46:2302:46:36N
605385Gary DowlingM40Peel R R02:46:4502:47:10N
606588Keith ParryMChase Harriers02:46:5302:47:04N
607471Martin BettM40 02:47:0002:47:14N
608871Sheila TaylorF60Rugby & Northampton AC02:47:1102:47:46N
609434Colin BevanM65Bridgnorth AC02:47:1202:48:00N
610631Willaim MetcalfeM65Basildon AC02:47:1202:47:25N
611586Mike KingMPortishead Running Club02:47:1702:48:11N
612554Lorraine VarneyF45Formula One C C02:47:3702:48:23N
613157John NugentM 02:48:2602:49:21N
614156Ian RoseM 02:48:2602:49:21N
615155David JamesM 02:48:2702:49:21N
61690Mark BeesonM40Farnham Runners02:48:3202:49:19N
61794Helen CathieFFarnham Runners02:48:3202:49:19N
61896Emma DovenF35Farnham Runners02:48:3302:49:19N
61929Elizabeth WillisF40Abbey Runners02:48:3502:49:13N
620712Bhopinder MahalM 02:48:3602:49:13N
621333Ben Jacks-RobsonM 02:48:4802:49:01N
622361Debbie WhittleF45Wimborne A C02:49:1602:50:05N
623828Stephen WrightM 02:49:2602:50:16N
624356Karen MccombF45 02:49:4002:50:17N
625827Lisa KallalF35Serpentine02:50:1102:51:01N
626284Kevin HollandM40Long Eaton02:50:1902:50:47N
627113John NugentM65Broxbourne Runners02:50:2602:50:38N
628692Nikki GrenfellF40 02:50:4102:51:19N
629275Lesley PymmF50Centurion RR02:51:0202:51:23N
630634Peter BalmonM45Peel R R02:51:1502:51:40N
631872Sue WaldenF40Rugby & Northampton AC02:51:5902:52:33N
632939Hugh MorganM 02:52:0102:52:54N
633787Alison HumeF40Almost Athletes02:52:0602:52:35N
634542Ken ButlerM65 02:52:2602:52:41N
635675Iain WilkieM40 02:52:5702:53:12N
636704Lorwerth RobertsM60Eryri Harriers02:53:4502:54:34N
637476Frederick GoodwinM45 02:54:0502:54:55N
638695Jamie FoxM 02:55:1302:55:35N
639802Karen StoneF50Trail Running Association02:55:2502:55:41N
640216Birgit KaschubaF40Red Lions Leipzig02:55:3102:56:18N
641635Timothy AndrewsM45Saracens02:55:3202:55:49N
642816Robert MackeyMBuckley Runners02:56:1102:56:57N
643777Tom RoseM55 02:56:2802:57:17N
644399Helen ClarkF40 02:56:3102:56:46N
645167Tom RoseM55 02:56:4302:57:32N
646229James HopegoodM40Witham Running Club02:56:4502:57:05N
647571Kevin CastletonM45 02:57:2502:57:45N
648927Tony AttwoodM55 02:57:4202:58:20N
649887Andrew CraneM50 02:57:4602:58:40N
650318Karen BlissF40 02:58:0702:58:57N
651697Deborah O'HanlonF40 02:58:0802:58:58N
652486Sean TebbuttMDesford Striders02:58:3702:59:27N
653326Helen McdaidF35WRN02:59:2602:59:59N
654379Heather ConollyF50 02:59:3902:59:58N
655658Colin RowleyM40 02:59:4503:00:33N
656792Gail BeddisF50Almost Athletes03:00:5603:01:24N
657863David HilliardM50Liverpool RC03:01:1803:01:58N
658889Robert GoodacreM60Humanenergy AC03:01:5503:02:40N
659893Janet BrownF60 03:02:5203:03:37N
660125Stephanie WarrickF55Rhayader03:04:5403:05:36N
661485Nicki BrantF35Black Pear Joggers03:05:4803:06:11N
662573Gay GroveF55Black Pear Joggers03:05:4803:06:11N
663925Matt ChandlerM 03:07:5103:08:35N
664403Frank GrantM65Stafford Harriers03:08:2903:09:17N
665231Giles FletcherM70Royal Navy AC03:09:0003:09:51N
666497Gudrun JonesF45Sarn Helen03:09:2103:10:11N
667921Mike MooreM65Stafford Harriers03:10:3703:11:24N
668395David VaughanM 03:11:2003:11:36N
669398Debbie ChallinerF40 03:11:2203:11:37N
67062Fiona JudsonF35Almost Athletes03:13:1103:13:41N
671685Martin JonesM55 03:13:2203:13:29N
672133Marjorie GriffithsF60Bro Dysynni AC03:13:4703:14:30N
673232Mark Cordiner-BartonM 03:14:2103:14:53N
674888Barry BearmanM60Silsow Joggers03:16:4803:17:33N
675895Malcolm StrettonM50Buckley Runners03:17:1403:17:59N
676132Chris MagnerM60 03:17:3503:17:42N
677848Michelle FrancisF35 03:17:4503:18:32N
678851Helen FrancisF40 03:17:4603:18:33N
679489Christine NorrisF55Peel R R03:18:2903:18:57N
680416Andree LyonF35Peel R R03:18:3003:18:57N
681623Gwyn RobertsM 03:18:4003:18:49N
682358Patricia SeabrookF65Finch Coasters03:23:0403:23:42N
683585Joanna CostonF 03:25:3003:26:08N
684524Claire JoyceFHenfield Joggers03:28:1403:28:58N
685440Vic GrettonM40Henfield Joggers03:28:1503:28:57N
686525Stephen GrettonM40Henfield Joggers03:28:3903:29:21N
687952Michael FarrellM50London Irish03:35:3603:36:18N
688213Darren TaylorM40Cannock Chase Harriers03:42:2703:42:27N
689731Julianne AdamsF40Almost Athletes03:42:3503:42:35N
Back to year index - Top of page